Orbital Elements at Epoch 2459000.5 (2020-May-31.0) TDB
Reference: JPL 21 (heliocentric ecliptic J2000)
Element | Value | Uncertainty (1-sigma) | Units |
e | .2320346762429505 | 3.15e-08 | |
a | 2.598127045029535 | 1.0978e-08 | au |
q | 1.995271477298053 | 8.1136e-08 | au |
i | 6.164176236202652 | 3.7742e-06 | deg |
node | 127.8759294539733 | 4.7532e-05 | deg |
peri | 7.378209378859643 | 4.9079e-05 | deg |
M | 71.63398574126246 | 1.3365e-05 | deg |
tp | 2458696.127355394417 (2019-Jul-31.62735539) | 5.5611e-05 | TDB |
period | 1529.639191846522 4.19 | 9.6948e-06 2.654e-08 | d yr |
n | .2353496183406636 | 1.4916e-09 | deg/d |
Q | 3.200982612761017 | 1.3525e-08 | au |
|
| | Orbit Determination Parameters
Additional Information
|